Location: Newark
(6.7500°N, 43.3333°E)
Time: 06:23:24
(UTC+00:00)

N. Korean satellite - Visible Passes

Search period start: 16 July 2019 00:00
Search period end: 26 July 2019 00:00
Orbit: 456 x 508 km, 97.2° (Epoch: 15 July)

Date Brightness Start Highest point End Pass type
(mag) Time Alt. Az. Time Alt. Az. Time Alt. Az.
18 Jul 8.6 02:24:09 10° NE 02:27:30 32° E 02:30:51 10° SSE visible
19 Jul 9.7 02:00:37 10° ENE 02:02:26 13° E 02:04:17 10° SE visible
22 Jul 9.0 02:17:23 10° NE 02:20:29 25° E 02:23:35 10° SSE visible
23 Jul 10.1 01:54:53 10° E 01:55:25 10° E 01:55:57 10° ESE visible
25 Jul 7.6 02:34:53 10° NNE 02:38:30 51° E 02:42:05 10° S visible
